Weather in Dubovyy Mys

Russia / Khabarovsk Krai     49°06′31″N   136°29′58″E
temp.,
°C
wind,
m/s
gust,
m/s
humid.,
%
clouds,
%
prec.,
mm/h
press.,
hPa
HPBL,
m
27 february, sat
sat2701:00−20ssw3698100 0.0 1033122
04:00−21s359697 0.0 103492
07:00−21ssw479420 0.0 1035115
10:00−16ssw598712 0.0 1034400
13:00−12sw588450 0.0 1032519
16:00−9sw478373 0.0 1028518
19:00−13w0190100 0.0 102621
22:00−12ne1292100 0.0 102320
28 february, sun
sun2801:00−10sw2690100 0.0 1020178
04:00−6sw71495100 0.9 1017812
07:00−5sw71394100 1.5 1016846
10:00−4sw71391100 2.5 1015733
13:00−5sw7118590 0.0 1015573
16:00−7sw8138295 0.0 1016854
19:00−9sw81570100 0.0 1019586
22:00−13sw81573100 0.0 1022511
1 march, mon
mon101:00−16sw6148085 0.0 1023425
04:00−19ssw7138243 0.0 1025405
07:00−20ssw713830 0.0 1027401
10:00−19sw812810 0.0 1028709
13:00−15sw711714 0.0 10281237
16:00−13wsw7116628 0.0 10281557
19:00−17sw6117817 0.0 1030286
22:00−19sw511829 0.0 1031227
2 march, tue
tue201:00−21ssw712860 0.0 1031291
04:00−22ssw712900 0.0 1031257
07:00−24ssw510920 0.0 1032199
10:00−20ssw59860 0.0 1031450
13:00−17sw57770 0.0 1030771
16:00−15ssw357621 0.0 1029925
19:00−20s478969 0.0 1031123
22:00−22ssw469035 0.0 103285
3 march, wed
wed301:00−24ssw34890 0.0 103145
04:00−25ssw33910 0.0 103133
07:00−26ssw33900 0.0 103030
10:00−20ssw35860 0.0 1029238
13:00−13ssw357623 0.0 1025607
16:00−11wsw237357 0.0 1022597
19:00−15n1186100 0.0 102020
22:00−14s1187100 0.0 101920